Location: Warner Observatory
(35.1353°N, 89.5455°W)
Time: 14:48:58
(UTC-06:00)

Envisat - Pass Details

Date: 01 February 2020
Orbit: 764 x 766 km, 98.1° (Epoch: 23 February)

Event Time Altitude Azimuth Distance (km) Brightness Sun altitude
Rises 05:55:00 0° 23° (NNE) 3,235 6.4 -13.1°
Reaches altitude 10° 05:57:32 10° 33° (NNE) 2,305 5.7 -12.6°
Maximum altitude 06:02:06 34° 97° (E) 1,252 4.9 -11.7°
Drops below altitude 10° 06:06:39 10° 162° (SSE) 2,291 5.9 -10.8°
Sets 06:09:09 0° 171° (S) 3,213 6.5 -10.3°
